FALCON 9 R/B, 62719

Orbit data source: Space-Track

FALCON 9 R/B, 62719 is space debris in HEO originally from a launch on Wed, 15 Jan 2025 UTC launched from the Air Force Eastern Test Range (AFETR). Debris objects in space refer to the collection of defunct objects orbiting the Earth. Examples of debris include non-operational satellites, rocket bodies, and fragments generated from explosions, collisions, or faulty payload assembly.

Loading next visibility...
FALCON 9 R/B details
Identifier
62719, 2025-010D
Orbit
HEO
Last TLE update1 month ago
Origin
Flag of USSpaceX (US)
ManufacturerSpaceX
MissionSpacecraft
Bus & MotorF9ST2, Unknown motor
Mass~3,000 kg wet, ~3,000 kg dry
Launch date (UTC)
2025-01-15 (1 month ago)
Launch vehicleUnknown
Launch site
Air Force Eastern Test Range (AFETR)
Object type
Payload
Rocket body
Debris
Shape & HBRUnknown
Radar Cross SectionRCS unknown

Expand to show TLE details & history

TLE from 1 month ago
0 FALCON 9 R/B
1 62719U 25010D   25015.31796730 -.00038243  31373-4  00000-0 0  9994
2 62719  35.1700   0.1839 9650900 345.5700   0.7230  0.10673359    03
Epoch: 2025-01-15T07:37Z
Definitive object data (Epoch: 2025-01-15T07:37:52.374Z)
Latitude25.60567°
Longitude-93.6906°
Altitude59,588.328 km
Speed3.156 km/s
True Right ascension09h 03m 09s
True Declination25° 35' 28"
Sunlit
Object was in daylight at TLE epoch
Visualization TLE readout
Latitude8.58554°
Longitude-62.22225°
Altitude359,939.182 km
Speed0.23 km/s
Apparent Right ascension11h 06m 16s
Apparent Declination8° 00' 13"
Sunlit
Object is in daylight
Visualization observer readout
Local Sidereal Time15:17:07
Azimuth258.158° W
Elevation25.948°
Doppler factor1
Orbital elements
Apogee altitude362,541.96 km
Perigee altitude175.762 km
Semi-major axis187,736.998 km
Eccentricity0.96509
Inclination35.17°
RAAN0.1839°
Arg. of periapsis345.57°
True anomaly91.19139°
Mean anomaly0.723°
Eccentric anomaly15.49915°
Mean motion0.02668 °/min
BSTARUnknown
Orbital period13492.24 mins
Loading maneuver chart data...
Loading historical data...
Loading historical data...
Loading historical data...
Loading historical data...
Loading historical data...
Loading historical data...
Loading historical data...
Other satellites on launch #10 in the year 2025 (2025-01-15 UTC)

FALCON 9 R/B Visibility forecast

Observer location: undefined°, undefined

Span
Click to sort rows by Start time (UTC) header in descending order
Start Az.
Max El. time (UTC)
Max El. Az.
Max El.
End time (UTC)
End Az.
82 mins2025-02-16 12:30:34.988Z258.156° W2025-02-16 12:30:34.988Z258.156° W23.632°2025-02-16 13:52:34.988Z271.775° WNW
573 mins2025-02-17 02:57:34.988Z89.288° E2025-02-17 08:25:34.988Z180.18° SSW39.99°2025-02-17 12:30:34.988Z256.422° W
|